[[{"header":{"parameterUnit":"m.s-1","parameterCategory":1,"la1":30.2991,"la2":30.254,"lo1":-89.0895,"lo2":-89.0444,"dy":0.0017,"dx":0.0017,"nx":28,"ny":28,"refTime":"2025-06-18T21:00:00:Z","depth":0,"parameterNumber":2,"parameterNumberName":"U-component_of_WINDS"},"data":[0,0,0,0,0,0,0,0,0,0,0,0,0,0,0,0,0,0,0,0,0,0,0,0,0,0,0,0,0,0,0,0,0,0,0,0,0,0,0,0,0,0,0,0,0,0,0,0,0,0,0,0,0,0,0,0,0,0,0.4073,0.4074,0,0.4134,0.4135,0.4136,0.415,0.415,0.415,0.4149,0.421,0.4212,0.4214,0,0,0,0,0,0,0,0,0,0,0,0,0,0.3967,0.3968,0.4073,0.4074,0.4075,0.4134,0.4135,0.4136,0.4151,0.415,0.415,0.4149,0.4209,0.4212,0.4214,0,0,0,0,0,0,0,0,0,0,0,0,0,0.4019,0.3969,0.4073,0.4089,0.4091,0.4134,0.4135,0.4136,0.4151,0.415,0.4149,0.4149,0.4208,0.4211,0.4214,0.4245,0,0,0.4223,0.4225,0,0,0,0,0,0,0,0,0.4016,0.4023,0.4086,0.4088,0.4091,0.4134,0.412,0.4172,0.4151,0.4128,0.4149,0.4149,0.4185,0.419,0.4203,0.4247,0.425,0.4224,0.4225,0.4227,0.4228,0,0,0,0,0,0,0,0.4012,0.402,0.4097,0.4087,0.409,0.4093,0.4099,0.413,0.4159,0.413,0.4131,0.4138,0.4186,0.42,0.4204,0.4251,0.4224,0.4226,0.4228,0.4229,0.4322,0.4323,0,0,0,0,0,0,0.4006,0.4017,0.4095,0.4099,0.4051,0.4095,0.4103,0.4121,0.4159,0.4164,0.4139,0.4139,0.4195,0.4201,0.4206,0.4244,0.4227,0.4229,0.4231,0.4322,0.4322,0.4323,0,0,0,0,0,0,0.4004,0.4013,0.4093,0.4058,0.4069,0.4097,0.4118,0.4122,0.4136,0.4165,0.4171,0.4147,0.4195,0.4202,0.4235,0.4246,0.4231,0.4233,0.4321,0.4322,0.4323,0.4319,0,0,0,0,0,0,0.4001,0.4012,0.4025,0.4059,0.4071,0.4121,0.4119,0.4124,0.4141,0.4142,0.4175,0.418,0.4195,0.423,0.4238,0.425,0.4236,0.432,0.4321,0.4323,0.4319,0.432,0.4322,0,0,0,0,0,0.3997,0.4021,0.4025,0.4034,0.4087,0.4122,0.4129,0.4146,0.4142,0.4154,0.4173,0.4179,0.4244,0.4234,0.4242,0.4255,0.4319,0.4321,0.4322,0.4318,0.432,0.4322,0,0,0,0,0,0,0.3987,0.4026,0.4031,0.4067,0.4091,0.4124,0.4141,0.4148,0.4173,0.4172,0.4192,0.4199,0.423,0.4246,0.4234,0.4286,0.4281,0.4285,0.4275,0.4277,0.4278,0.4274,0.4238,0,0,0,0,0,0.3989,0.4015,0.4047,0.4076,0.4088,0.4112,0.4128,0.4139,0.4164,0.4175,0.4196,0.422,0.4245,0.4262,0.4287,0.4321,0.4328,0.4334,0.4335,0.4336,0.4339,0.4357,0.436,0.4328,0.4328,0.4328,0,0,0.3994,0.4018,0.4033,0.4074,0.4094,0.412,0.4121,0.4148,0.4167,0.4179,0.4211,0.4227,0.4255,0.4288,0.4303,0.4302,0.4349,0.4338,0.4339,0.4341,0.4359,0.4362,0.4364,0.4329,0.4329,0.4329,0,0,0.4015,0.4036,0.4062,0.4082,0.4113,0.4129,0.4135,0.4167,0.4178,0.4211,0.422,0.4242,0.4286,0.4306,0.4321,0.4349,0.4354,0.4356,0.4364,0.4381,0.4384,0.4386,0.4395,0.4398,0.4359,0.4359,0.4359,0,0.4017,0.4057,0.4075,0.4101,0.4119,0.4131,0.4157,0.4175,0.4212,0.4223,0.4221,0.4276,0.4296,0.4333,0.4339,0.4352,0.4359,0.4353,0.4382,0.4384,0.4387,0.4396,0.4399,0.4359,0.4359,0.4359,0.4359,0,0.4057,0.4084,0.4101,0.4137,0.4156,0.4182,0.4203,0.4221,0.423,0.4245,0.4278,0.4302,0.4332,0.4341,0.435,0.4379,0.4377,0.4378,0.4374,0.4389,0.4398,0.4402,0.4359,0.4359,0.4359,0.4359,0,0,0.4075,0.412,0.4126,0.4142,0.4176,0.4197,0.4222,0.4252,0.4266,0.4291,0.4313,0.4349,0.435,0.4367,0.4378,0.4393,0.4413,0.4392,0.4393,0.4395,0.4446,0.4445,0.4449,0.4416,0.4417,0.4418,0.4443,0,0.41,0.4148,0.4165,0.4204,0.4229,0.424,0.4263,0.4285,0.43,0.4323,0.4339,0.4364,0.4364,0.4374,0.439,0.4407,0.4423,0.4405,0.4436,0.4437,0.4429,0.4454,0.4453,0.4476,0.4447,0.4447,0.4448,0,0.4137,0.4162,0.4204,0.4235,0.4246,0.4266,0.4294,0.4316,0.4341,0.435,0.4369,0.4379,0.4406,0.4399,0.4435,0.4423,0.4436,0.4446,0.4447,0.4451,0.4444,0.4458,0.4484,0.4488,0.4454,0.4453,0.4453,0,0.4145,0.419,0.4221,0.4234,0.427,0.4284,0.43,0.4324,0.4341,0.4365,0.4376,0.4402,0.4417,0.4437,0.4453,0.4446,0.4487,0.4482,0.4495,0.4495,0.4504,0.4503,0.4532,0.4512,0.4512,0.4512,0.4512,0,0.4173,0.4198,0.4225,0.4244,0.4273,0.4291,0.4317,0.4333,0.4355,0.4376,0.4387,0.4407,0.4427,0.4449,0.4461,0.4489,0.4495,0.4503,0.4506,0.4502,0.4501,0.4512,0.451,0.4513,0.4512,0.4512,0.4512,0,0.4187,0.4207,0.4241,0.4272,0.4281,0.43,0.4326,0.4344,0.4359,0.4386,0.4393,0.4417,0.4443,0.4461,0.4494,0.4502,0.4532,0.4535,0.4524,0.4525,0.4537,0.4536,0.4575,0.458,0.4556,0.4556,0.4556,0,0.4203,0.4223,0.4256,0.4272,0.4288,0.4312,0.4329,0.4347,0.4364,0.4394,0.4408,0.4435,0.4458,0.4499,0.4518,0.4543,0.4546,0.4558,0.455,0.4546,0.4546,0.4545,0.4547,0.4559,0.456,0.456,0.456,0,0.423,0.4238,0.4263,0.4291,0.4311,0.4333,0.4356,0.4368,0.4389,0.4407,0.4435,0.4452,0.4486,0.4512,0.4539,0.4554,0.456,0.4562,0.4566,0.4563,0.4556,0.456,0.4527,0.4561,0.4561,0.4561,0.4561,0.4561,0.4246,0.4263,0.429,0.4316,0.4335,0.4356,0.4374,0.4392,0.4415,0.4445,0.4453,0.4481,0.4505,0.4542,0.4556,0.4578,0.4577,0.4583,0.4585,0.4586,0.4586,0.4552,0.4583,0.4583,0.4583,0.4583,0.4583,0,0.4272,0.429,0.4314,0.4346,0.4366,0.4371,0.4396,0.4412,0.4437,0.4459,0.4481,0.4512,0.4537,0.4558,0.4583,0.4596,0.46,0.4603,0.4602,0.4605,0.4586,0.4579,0.4599,0.4599,0.4599,0.4599,0.4599,0.4599,0.4289,0.4319,0.4331,0.437,0.4387,0.4415,0.4429,0.4447,0.4465,0.4499,0.452,0.4534,0.4555,0.4582,0.4605,0.461,0.4619,0.4621,0.4627,0.4608,0.4606,0.4605,0.4599,0.4623,0.4623,0.4644,0.4645,0.4645]},{"header":{"parameterUnit":"m.s-1","parameterCategory":1,"la1":30.2991,"la2":30.254,"lo1":-89.0895,"lo2":-89.0444,"dy":0.0017,"dx":0.0017,"nx":28,"ny":28,"refTime":"2025-06-18T21:00:00:Z","depth":0,"parameterNumber":3,"parameterNumberName":"V-component_of_WINDS"},"data":[0,0,0,0,0,0,0,0,0,0,0,0,0,0,0,0,0,0,0,0,0,0,0,0,0,0,0,0,0,0,0,0,0,0,0,0,0,0,0,0,0,0,0,0,0,0,0,0,0,0,0,0,0,0,0,0,0,0,4.3582,4.3582,0,4.355,4.3549,4.3549,4.3521,4.3521,4.3521,4.352,4.3484,4.3484,4.3483,0,0,0,0,0,0,0,0,0,0,0,0,0,4.362,4.3619,4.3583,4.3582,4.3582,4.355,4.3549,4.3549,4.3521,4.3521,4.3521,4.352,4.3484,4.3484,4.3483,0,0,0,0,0,0,0,0,0,0,0,0,0,4.3597,4.3619,4.3583,4.3564,4.3562,4.355,4.3549,4.3549,4.3521,4.3521,4.3521,4.352,4.3485,4.3484,4.3483,4.3485,0,0,4.348,4.3479,0,0,0,0,0,0,0,0,4.3598,4.3596,4.3567,4.3565,4.3563,4.3539,4.3549,4.3527,4.3522,4.3537,4.352,4.352,4.3503,4.35,4.3495,4.3483,4.3482,4.3479,4.3479,4.3478,4.3478,0,0,0,0,0,0,0,4.36,4.3597,4.3569,4.3567,4.3564,4.3557,4.3553,4.3545,4.3523,4.3535,4.3533,4.353,4.3501,4.3496,4.3494,4.3481,4.3479,4.3479,4.3478,4.3478,4.3471,4.3471,0,0,0,0,0,0,4.3605,4.3598,4.357,4.3568,4.358,4.3557,4.3553,4.3547,4.3523,4.3518,4.353,4.3529,4.3498,4.3495,4.3492,4.3494,4.3478,4.3477,4.3477,4.347,4.3471,4.3471,0,0,0,0,0,0,4.3606,4.3602,4.3572,4.3583,4.3578,4.3557,4.3551,4.3547,4.3541,4.3519,4.3514,4.3529,4.3497,4.3494,4.3487,4.3492,4.3477,4.3476,4.347,4.3471,4.3471,4.3497,0,0,0,0,0,0,4.3607,4.3603,4.3604,4.3583,4.3578,4.3568,4.3551,4.3547,4.354,4.3538,4.3516,4.3512,4.3497,4.3489,4.3486,4.3491,4.3475,4.3469,4.347,4.3471,4.3496,4.3498,4.3501,0,0,0,0,0,4.3608,4.3612,4.3604,4.3601,4.3579,4.3568,4.3565,4.3548,4.354,4.3541,4.3527,4.3513,4.3492,4.3489,4.3485,4.3489,4.3469,4.347,4.3471,4.3494,4.3498,4.3501,0,0,0,0,0,0,4.3632,4.3609,4.36,4.3597,4.3585,4.3564,4.3564,4.3552,4.3541,4.3539,4.3518,4.3513,4.3509,4.3499,4.3495,4.3491,4.3479,4.3479,4.3498,4.3501,4.3504,4.3506,4.3474,0,0,0,0,0,4.3638,4.3632,4.3611,4.361,4.3605,4.3586,4.358,4.3568,4.3555,4.3549,4.3534,4.3521,4.3512,4.3506,4.3496,4.3494,4.3489,4.3495,4.3498,4.35,4.3501,4.35,4.3502,4.3475,4.3475,4.3475,0,0,4.3648,4.3634,4.3631,4.3615,4.3604,4.3598,4.3581,4.3575,4.3571,4.3548,4.3541,4.353,4.3514,4.351,4.3508,4.3501,4.3507,4.3502,4.3504,4.3503,4.3501,4.3504,4.3506,4.3475,4.3475,4.3475,0,0,4.3663,4.3653,4.3651,4.3641,4.3626,4.3613,4.3613,4.3594,4.3586,4.3579,4.3562,4.3556,4.354,4.3529,4.3522,4.3535,4.3522,4.3532,4.3546,4.3545,4.3547,4.3549,4.3554,4.3556,4.3533,4.3533,4.3533,0,4.3678,4.3669,4.3652,4.3647,4.364,4.3621,4.3619,4.361,4.3592,4.3588,4.3581,4.3561,4.3549,4.3543,4.3546,4.3541,4.354,4.3534,4.3549,4.355,4.3552,4.3556,4.3558,4.3534,4.3534,4.3534,4.3534,0,4.3687,4.3681,4.3682,4.3666,4.366,4.3656,4.3639,4.3634,4.3623,4.3611,4.3605,4.3589,4.3576,4.3574,4.3563,4.3567,4.3563,4.3553,4.354,4.3556,4.356,4.3561,4.3536,4.3536,4.3535,4.3535,0,0,4.3716,4.3692,4.3693,4.3686,4.3668,4.3663,4.3659,4.3647,4.3644,4.3632,4.3628,4.3616,4.3607,4.3598,4.3586,4.3585,4.3597,4.3575,4.3574,4.358,4.3601,4.3609,4.3611,4.3589,4.3589,4.3589,4.3602,0,4.3729,4.3722,4.3707,4.3704,4.3699,4.3681,4.3677,4.3666,4.3655,4.3648,4.3636,4.3628,4.3616,4.3611,4.361,4.3596,4.3601,4.3595,4.3585,4.3584,4.3589,4.3613,4.3621,4.3634,4.3604,4.3604,4.3604,0,4.3742,4.3733,4.373,4.3714,4.3711,4.3708,4.3697,4.3691,4.3678,4.367,4.3661,4.3648,4.3643,4.3632,4.3625,4.3621,4.3616,4.3609,4.3609,4.3607,4.3595,4.3612,4.3638,4.364,4.3606,4.3606,4.3606,0,4.3764,4.3751,4.3748,4.3742,4.3723,4.3721,4.3713,4.37,4.3694,4.3684,4.368,4.3669,4.3663,4.3655,4.3639,4.3632,4.3634,4.3621,4.3627,4.3627,4.3627,4.3627,4.3653,4.3624,4.3624,4.3624,4.3624,0,4.378,4.3779,4.3757,4.3755,4.3754,4.3737,4.3736,4.3726,4.3714,4.371,4.3693,4.3689,4.3668,4.3662,4.365,4.3646,4.3643,4.3636,4.3633,4.3638,4.3639,4.3634,4.3633,4.3625,4.3625,4.3625,4.3624,0,4.3803,4.3789,4.3784,4.3767,4.3763,4.3762,4.3747,4.3744,4.3733,4.3728,4.3725,4.3707,4.3699,4.3683,4.3669,4.3661,4.366,4.3654,4.3665,4.3663,4.3669,4.3669,4.3693,4.3695,4.3665,4.3665,4.3666,0,4.3814,4.3813,4.3796,4.3792,4.3785,4.3779,4.3774,4.3757,4.3752,4.3738,4.3737,4.3728,4.372,4.3707,4.3693,4.3683,4.3676,4.3685,4.3675,4.368,4.3677,4.3677,4.3677,4.3688,4.3688,4.3688,4.3689,0,4.3835,4.3828,4.3821,4.3812,4.3807,4.3799,4.3789,4.3787,4.3769,4.3764,4.3756,4.375,4.3737,4.3728,4.3716,4.3707,4.3695,4.3692,4.3693,4.3698,4.3704,4.3701,4.3671,4.3692,4.3691,4.3691,4.3691,4.3691,4.3852,4.3851,4.3839,4.3832,4.3824,4.3816,4.3814,4.3802,4.3796,4.3785,4.3776,4.3769,4.3756,4.3739,4.3731,4.3725,4.3719,4.372,4.372,4.3721,4.3723,4.3706,4.3723,4.3723,4.3723,4.3723,4.3723,0,4.3872,4.3864,4.3858,4.3847,4.3842,4.3832,4.3822,4.3818,4.3812,4.3802,4.3795,4.3786,4.3778,4.3763,4.3754,4.3752,4.3746,4.375,4.375,4.3748,4.3729,4.3729,4.3755,4.3755,4.3755,4.3755,4.3755,4.3755,4.3882,4.388,4.3872,4.3865,4.3857,4.3851,4.3846,4.3839,4.3831,4.3822,4.3816,4.3807,4.3795,4.3785,4.3776,4.3772,4.377,4.3775,4.3769,4.3752,4.3749,4.3746,4.3746,4.3775,4.3775,4.3789,4.3789,4.3789]}]]